Terminal Aerodrome Forecast
Issued by NWS

Home | Current Version | Previous Version | Text Only | Print | Product List | Glossary On
Versions: 1 2 3 4 5 6 7 8 9 10 11 12 13 14 15 16 17 18 19 20 21 22 23 24 25 26 27 28 29 30 31 32 33 34 35 36 37 38 39 40 41 42 43 44 45 46 47 48
000
FTAK31 PANC 191140
TAFASN
TAF
PASN 191140Z 1912/2012 32025G35KT P6SM BKN015 BKN025
      TEMPO 1912/1916 -SHSN SCT015
     FM191800 33020G30KT P6SM -SHSN SCT025 OVC035
      TEMPO 1921/1923 33028G38KT 3SM -SHSN BLSN BKN010 OVC030
     FM200500 28015G22KT P6SM -SHSN BKN030=

USA.gov is the U.S. government's official web portal to all federal, state and local government web resources and services.